Total_Precipitation_Accumulation
1.73 1.69 1.64 1.56 1.57 1.59 1.66 1.83 2.05 1.89 1.46 1.12 1.04 1.07 1.16 1.18 1.24 1.15 1.02 1.10 1.11 1.10 1.12 1.11 1.16 1.24 1.29 1.37 1.50 1.64 1.80 1.98 2.19 2.41 2.60 2.70 2.79 2.89
1.66 1.63 1.54 1.45 1.48 1.54 1.61 1.68 1.85 2.00 1.71 1.18 1.01 0.97 1.05 1.09 1.17 1.07 0.98 1.13 1.10 1.03 0.99 1.00 1.04 1.13 1.22 1.29 1.32 1.37 1.44 1.56 1.77 1.99 2.22 2.44 2.58 2.72
1.63 1.63 1.57 1.46 1.45 1.45 1.48 1.53 1.59 1.74 1.72 1.25 1.06 1.04 1.06 1.06 1.08 1.04 0.97 0.96 0.94 1.04 0.99 0.97 0.97 1.04 1.13 1.21 1.27 1.27 1.30 1.40 1.52 1.69 1.88 2.07 2.25 2.34
1.49 1.52 1.53 1.49 1.47 1.42 1.40 1.39 1.36 1.37 1.48 1.31 1.03 1.00 1.00 0.99 1.05 1.09 1.04 0.96 0.87 0.96 0.95 0.93 0.95 0.98 1.02 1.10 1.21 1.28 1.29 1.31 1.36 1.45 1.57 1.66 1.82 2.04
1.39 1.39 1.40 1.44 1.42 1.32 1.28 1.25 1.22 1.24 1.33 1.35 1.13 1.00 0.99 0.99 1.05 1.08 1.05 1.03 0.96 0.99 1.02 1.00 1.01 1.01 1.05 1.10 1.16 1.26 1.33 1.34 1.32 1.35 1.43 1.51 1.61 1.77
1.39 1.37 1.31 1.30 1.26 1.21 1.20 1.20 1.26 1.37 1.40 1.45 1.33 1.14 1.07 1.03 1.10 1.11 1.10 1.04 1.05 1.03 1.13 1.16 1.16 1.13 1.10 1.11 1.13 1.19 1.27 1.38 1.44 1.47 1.52 1.59 1.64 1.70
1.35 1.31 1.26 1.28 1.26 1.23 1.24 1.24 1.31 1.48 1.59 1.64 1.54 1.36 1.24 1.17 1.13 1.09 1.17 1.18 1.19 1.15 1.15 1.15 1.16 1.17 1.18 1.21 1.22 1.20 1.27 1.37 1.50 1.64 1.70 1.72 1.75 1.79
1.35 1.26 1.22 1.26 1.23 1.25 1.28 1.34 1.48 1.66 1.80 1.83 1.73 1.52 1.24 1.12 1.13 1.28 1.44 1.63 1.57 1.18 1.18 1.22 1.19 1.28 1.22 1.21 1.35 1.38 1.36 1.43 1.52 1.60 1.69 1.73 1.72 1.74
1.27 1.22 1.15 1.10 1.16 1.07 1.17 1.29 1.37 1.50 1.59 1.60 1.57 1.29 1.14 1.09 1.34 1.62 1.67 1.73 1.52 1.22 1.40 1.53 1.36 1.35 1.25 1.30 1.49 1.38 1.33 1.38 1.44 1.48 1.52 1.58 1.59 1.60
1.19 1.16 1.15 1.12 1.11 1.18 1.24 1.30 1.16 1.09 1.13 1.12 1.15 1.13 1.14 1.26 1.57 1.92 2.04 2.05 1.79 1.56 1.59 1.74 1.43 1.30 1.25 1.30 1.49 1.39 1.27 1.24 1.29 1.36 1.40 1.42 1.43 1.49
1.06 1.05 1.08 1.07 1.24 1.41 1.46 1.46 1.24 1.01 1.02 1.14 1.25 1.28 1.36 1.48 1.62 1.99 2.29 2.44 2.12 1.59 1.42 1.56 1.45 1.37 1.37 1.34 1.40 1.48 1.35 1.29 1.27 1.32 1.37 1.40 1.40 1.44
1.01 0.99 1.10 1.12 1.29 1.42 1.36 1.43 1.38 1.13 1.06 1.10 1.16 1.20 1.17 1.27 1.53 1.72 2.26 2.83 2.53 1.93 1.34 1.48 1.53 1.64 1.91 1.47 1.29 1.35 1.38 1.41 1.39 1.37 1.38 1.38 1.40 1.39
0.98 0.92 0.92 1.15 1.28 1.36 1.30 1.17 1.28 1.34 1.26 1.23 1.23 1.22 1.22 1.26 1.35 1.48 1.87 2.68 3.05 2.40 1.55 1.97 2.18 1.91 2.12 1.73 1.40 1.37 1.41 1.48 1.54 1.50 1.46 1.43 1.40 1.44
0.94 0.84 0.89 1.12 1.15 1.18 1.15 1.19 1.37 1.38 1.24 1.37 1.44 1.41 1.37 1.38 1.41 1.49 1.62 1.86 2.19 2.24 1.81 2.18 2.68 2.25 2.35 1.97 1.50 1.43 1.51 1.64 1.70 1.67 1.57 1.59 1.50 1.48
0.94 0.99 1.02 1.06 1.04 1.04 1.15 1.28 1.26 1.16 1.30 1.54 1.56 1.47 1.47 1.54 1.60 1.66 1.66 1.68 1.74 1.71 1.71 1.81 2.13 2.16 2.36 2.28 1.78 1.54 1.71 1.85 1.91 1.93 1.79 1.62 1.49 1.44
1.01 1.03 1.00 0.98 1.00 1.05 1.14 1.14 1.10 1.18 1.45 1.63 1.62 1.53 1.54 1.64 1.75 1.85 1.98 1.94 1.95 1.77 1.58 1.51 1.61 1.99 2.21 1.89 1.94 1.84 1.82 2.17 2.27 2.24 1.99 1.76 1.58 1.42
1.06 0.99 0.95 0.95 0.97 0.97 1.01 1.04 1.11 1.25 1.38 1.42 1.58 1.66 1.64 1.69 1.78 1.88 2.05 2.08 2.02 1.74 1.52 1.40 1.41 1.55 1.77 1.86 1.94 1.79 1.84 2.01 2.20 2.27 2.09 2.03 1.88 1.66
1.12 1.06 1.00 0.97 0.99 0.99 1.02 1.06 1.11 1.25 1.40 1.57 1.69 1.80 1.88 1.91 1.96 1.95 1.98 2.02 1.90 1.61 1.42 1.30 1.34 1.51 1.51 1.46 1.63 1.77 1.81 1.96 2.11 2.10 1.91 2.00 2.05 1.83
1.06 1.03 1.02 1.04 1.05 1.06 1.09 1.15 1.18 1.24 1.50 1.77 1.90 1.97 2.07 2.10 2.08 2.00 1.85 1.75 1.59 1.38 1.23 1.16 1.33 1.79 1.85 1.38 1.17 1.43 1.90 2.02 1.94 1.94 1.85 1.82 1.98 1.85
0.95 1.04 1.11 1.14 1.15 1.16 1.19 1.29 1.38 1.44 1.61 1.81 1.93 2.03 2.18 2.25 2.10 1.84 1.63 1.52 1.42 1.24 1.10 0.99 1.11 1.62 2.21 1.98 1.60 1.39 1.57 1.96 2.14 2.10 1.80 1.66 1.73 1.73
0.88 0.99 1.07 1.14 1.18 1.21 1.26 1.37 1.54 1.68 1.77 1.95 2.03 2.12 2.20 2.20 1.92 1.54 1.33 1.22 1.23 1.22 1.15 0.96 0.89 1.13 1.59 1.87 1.69 1.30 1.39 1.63 1.94 2.34 2.22 2.08 1.87 1.64
0.83 0.93 1.00 1.08 1.19 1.30 1.38 1.48 1.65 1.73 1.82 1.94 2.04 2.07 1.97 1.86 1.66 1.35 1.21 1.20 1.15 1.10 1.04 0.90 0.85 0.99 1.33 1.72 1.52 1.19 1.22 1.30 1.33 1.43 1.79 2.26 2.78 2.69
0.88 0.95 1.01 1.09 1.21 1.34 1.48 1.54 1.63 1.71 1.82 1.94 1.95 1.83 1.67 1.50 1.29 1.24 1.19 1.16 1.15 1.08 1.04 1.01 0.96 0.99 1.10 1.23 1.34 1.24 1.14 1.13 1.09 1.18 1.46 1.50 1.66 1.93